| time (UTC) | temp F | wind direction | speed MPH | gust MPH | rain 1hr in | rain 24hr in | rain mn in | humidity % | barometer mb |
| 20260505041703 | 65 | 154 | 3.0 | 14.0 | 0.00 | 0.01 | 0.00 | 67 | 1004.7 |
| 20260505041303 | 65 | 156 | 4.0 | 14.0 | 0.00 | 0.01 | 0.00 | 65 | 1004.6 |
| 20260505041203 | 65 | 156 | 4.0 | 14.0 | 0.00 | 0.01 | 0.00 | 65 | 1004.7 |
| 20260505041124 | 65 | 153 | 4.0 | 14.0 | 0.00 | 0.01 | 0.00 | 65 | 1004.7 |
| 20260505040603 | 65 | 157 | 4.0 | 10.0 | 0.00 | 0.01 | 0.00 | 64 | 1005.0 |
| 20260505040203 | 65 | 161 | 3.0 | 10.0 | 0.00 | 0.01 | 0.00 | 64 | 1005.0 |
| 20260505040004 | 65 | 159 | 3.0 | 9.0 | 0.00 | 0.01 | 0.00 | 64 | 1004.7 |
| 20260505035924 | 65 | 156 | 3.0 | 7.0 | 0.00 | 0.01 | 0.01 | 65 | 1004.9 |
| 20260505035403 | 65 | 152 | 3.0 | 11.0 | 0.00 | 0.01 | 0.01 | 64 | 1004.7 |
| 20260505034503 | 65 | 150 | 3.0 | 10.0 | 0.00 | 0.01 | 0.01 | 64 | 1005.0 |
| 20260505034303 | 65 | 159 | 3.0 | 10.0 | 0.00 | 0.01 | 0.01 | 64 | 1004.7 |
| 20260505033903 | 65 | 159 | 3.0 | 9.0 | 0.00 | 0.01 | 0.01 | 64 | 1005.1 |
| 20260505033603 | 65 | 150 | 3.0 | 9.0 | 0.00 | 0.01 | 0.01 | 64 | 1005.1 |
| 20260505033103 | 65 | 141 | 3.0 | 9.0 | 0.00 | 0.01 | 0.01 | 64 | 1005.3 |
| 20260505032903 | 65 | 144 | 3.0 | 9.0 | 0.00 | 0.01 | 0.01 | 63 | 1004.7 |
| 20260505032703 | 65 | 146 | 3.0 | 9.0 | 0.00 | 0.01 | 0.01 | 64 | 1005.1 |
| 20260505032603 | 65 | 148 | 3.0 | 9.0 | 0.00 | 0.01 | 0.01 | 63 | 1005.0 |
| 20260505032304 | 65 | 159 | 4.0 | 9.0 | 0.00 | 0.01 | 0.01 | 63 | 1005.0 |
| 20260505032203 | 65 | 160 | 4.0 | 9.0 | 0.00 | 0.01 | 0.01 | 63 | 1005.2 |
| 20260505032103 | 66 | 157 | 4.0 | 11.0 | 0.00 | 0.01 | 0.01 | 63 | 1005.3 |
| 20260505031603 | 66 | 160 | 5.0 | 11.0 | 0.00 | 0.01 | 0.01 | 63 | 1005.1 |
| 20260505031524 | 66 | 159 | 4.0 | 11.0 | 0.00 | 0.01 | 0.01 | 63 | 1005.2 |
| 20260505031103 | 66 | 160 | 4.0 | 10.0 | 0.00 | 0.01 | 0.01 | 62 | 1005.1 |
| 20260505030903 | 66 | 156 | 4.0 | 16.0 | 0.00 | 0.01 | 0.01 | 62 | 1005.2 |
| 20260505030703 | 66 | 156 | 4.0 | 16.0 | 0.00 | 0.01 | 0.01 | 63 | 1005.2 |
| 20260505030403 | 66 | 149 | 4.0 | 16.0 | 0.00 | 0.01 | 0.01 | 63 | 1005.1 |
| 20260505025903 | 66 | 158 | 5.0 | 16.0 | 0.00 | 0.01 | 0.01 | 62 | 1005.0 |
| 20260505025403 | 66 | 164 | 3.0 | 13.0 | 0.00 | 0.01 | 0.01 | 62 | 1005.0 |
| 20260505025224 | 66 | 165 | 3.0 | 13.0 | 0.00 | 0.01 | 0.01 | 62 | 1005.3 |
| 20260505025103 | 66 | 152 | 3.0 | 9.0 | 0.00 | 0.01 | 0.01 | 62 | 1005.1 |
| 20260505024903 | 66 | 159 | 3.0 | 9.0 | 0.00 | 0.01 | 0.01 | 62 | 1005.1 |
| 20260505024603 | 66 | 162 | 3.0 | 10.0 | 0.00 | 0.01 | 0.01 | 62 | 1005.1 |
| 20260505024403 | 66 | 158 | 3.0 | 10.0 | 0.00 | 0.01 | 0.01 | 62 | 1005.0 |
| 20260505024203 | 66 | 161 | 3.0 | 10.0 | 0.00 | 0.01 | 0.01 | 62 | 1005.1 |
| 20260505023803 | 66 | 156 | 4.0 | 10.0 | 0.00 | 0.01 | 0.01 | 61 | 1005.1 |
| 20260505023704 | 66 | 155 | 4.0 | 10.0 | 0.00 | 0.01 | 0.01 | 61 | 1005.2 |
| 20260505023403 | 66 | 150 | 3.0 | 9.0 | 0.00 | 0.01 | 0.01 | 61 | 1004.9 |
| 20260505023303 | 66 | 146 | 3.0 | 10.0 | 0.00 | 0.01 | 0.01 | 61 | 1005.0 |
| 20260505023203 | 66 | 149 | 3.0 | 10.0 | 0.00 | 0.01 | 0.01 | 61 | 1005.0 |
| 20260505023103 | 66 | 153 | 3.0 | 10.0 | 0.00 | 0.01 | 0.01 | 61 | 1005.2 |
| 20260505023003 | 66 | 159 | 3.0 | 10.0 | 0.00 | 0.01 | 0.01 | 61 | 1005.1 |
| 20260505022903 | 66 | 158 | 3.0 | 10.0 | 0.00 | 0.01 | 0.01 | 61 | 1005.0 |
| 20260505022803 | 66 | 153 | 3.0 | 10.0 | 0.00 | 0.01 | 0.01 | 61 | 1005.2 |
| 20260505022624 | 66 | 150 | 3.0 | 10.0 | 0.00 | 0.01 | 0.01 | 61 | 1005.2 |
| 20260505022503 | 67 | 148 | 3.0 | 10.0 | 0.00 | 0.01 | 0.01 | 60 | 1005.1 |
| 20260505022103 | 67 | 164 | 4.0 | 11.0 | 0.00 | 0.01 | 0.01 | 60 | 1005.1 |
| 20260505021903 | 67 | 161 | 4.0 | 11.0 | 0.00 | 0.01 | 0.01 | 60 | 1005.0 |
| 20260505021824 | 67 | 163 | 5.0 | 11.0 | 0.00 | 0.01 | 0.01 | 60 | 1005.1 |
| 20260505021603 | 67 | 168 | 5.0 | 11.0 | 0.00 | 0.01 | 0.01 | 60 | 1004.9 |
| 20260505021503 | 67 | 172 | 5.0 | 16.0 | 0.00 | 0.01 | 0.01 | 59 | 1005.3 |
| 20260505021303 | 67 | 166 | 5.0 | 16.0 | 0.00 | 0.01 | 0.01 | 59 | 1005.0 |
| 20260505020624 | 67 | 176 | 4.0 | 16.0 | 0.00 | 0.01 | 0.01 | 59 | 1005.3 |
| 20260505020303 | 67 | 176 | 4.0 | 13.0 | 0.00 | 0.01 | 0.01 | 58 | 1005.4 |
| 20260505020103 | 67 | 177 | 4.0 | 11.0 | 0.00 | 0.01 | 0.01 | 58 | 1005.2 |
| 20260505015903 | 67 | 177 | 4.0 | 11.0 | 0.00 | 0.01 | 0.01 | 58 | 1005.3 |
| 20260505015503 | 67 | 181 | 5.0 | 11.0 | 0.00 | 0.01 | 0.01 | 58 | 1005.3 |
| 20260505015403 | 67 | 180 | 4.0 | 11.0 | 0.00 | 0.01 | 0.01 | 58 | 1005.4 |
| 20260505015124 | 67 | 180 | 4.0 | 11.0 | 0.00 | 0.01 | 0.01 | 57 | 1005.4 |
| 20260505014924 | 68 | 181 | 5.0 | 15.0 | 0.00 | 0.01 | 0.01 | 57 | 1005.2 |
| 20260505014403 | 68 | 182 | 4.0 | 15.0 | 0.00 | 0.01 | 0.01 | 57 | 1005.1 |
| 20260505014103 | 67 | 190 | 4.0 | 16.0 | 0.00 | 0.01 | 0.01 | 57 | 1005.2 |
| 20260505013903 | 68 | 179 | 4.0 | 16.0 | 0.00 | 0.01 | 0.01 | 57 | 1005.0 |
| 20260505013103 | 68 | 173 | 4.0 | 16.0 | 0.00 | 0.01 | 0.01 | 57 | 1005.1 |
| 20260505013024 | 68 | 168 | 4.0 | 16.0 | 0.00 | 0.01 | 0.01 | 57 | 1005.0 |
| 20260505012703 | 68 | 169 | 4.0 | 16.0 | 0.00 | 0.01 | 0.01 | 57 | 1005.2 |
| 20260505012603 | 68 | 166 | 4.0 | 16.0 | 0.00 | 0.01 | 0.01 | 57 | 1005.0 |
| 20260505012403 | 68 | 161 | 4.0 | 11.0 | 0.00 | 0.01 | 0.01 | 57 | 1004.7 |
| 20260505012103 | 68 | 169 | 5.0 | 11.0 | 0.00 | 0.01 | 0.01 | 56 | 1005.1 |
| 20260505012003 | 68 | 166 | 5.0 | 11.0 | 0.00 | 0.01 | 0.01 | 57 | 1005.0 |
| 20260505011903 | 68 | 165 | 5.0 | 11.0 | 0.00 | 0.01 | 0.01 | 56 | 1004.9 |
| 20260505011603 | 68 | 176 | 4.0 | 11.0 | 0.00 | 0.01 | 0.01 | 56 | 1005.0 |
| 20260505011303 | 68 | 182 | 4.0 | 11.0 | 0.00 | 0.01 | 0.01 | 56 | 1004.6 |
| 20260505011224 | 68 | 180 | 4.0 | 11.0 | 0.00 | 0.01 | 0.01 | 56 | 1005.0 |
| 20260505011103 | 69 | 184 | 4.0 | 11.0 | 0.00 | 0.01 | 0.01 | 56 | 1005.1 |
| 20260505010903 | 69 | 187 | 4.0 | 11.0 | 0.00 | 0.01 | 0.01 | 56 | 1004.9 |
| 20260505010602 | 69 | 174 | 4.0 | 10.0 | 0.00 | 0.01 | 0.01 | 56 | 1004.7 |
| 20260505010402 | 69 | 169 | 4.0 | 10.0 | 0.00 | 0.01 | 0.01 | 55 | 1004.5 |
| 20260505010002 | 69 | 164 | 3.0 | 10.0 | 0.00 | 0.01 | 0.01 | 55 | 1004.7 |
| 20260505005902 | 69 | 163 | 3.0 | 10.0 | 0.00 | 0.01 | 0.01 | 55 | 1004.6 |
| 20260505005602 | 69 | 163 | 3.0 | 10.0 | 0.00 | 0.01 | 0.01 | 55 | 1004.5 |
| 20260505005402 | 69 | 159 | 3.0 | 7.0 | 0.00 | 0.01 | 0.01 | 55 | 1004.5 |
| 20260505005202 | 69 | 155 | 3.0 | 8.0 | 0.00 | 0.01 | 0.01 | 55 | 1004.7 |
| 20260505005102 | 69 | 153 | 3.0 | 8.0 | 0.00 | 0.01 | 0.01 | 55 | 1004.4 |
| 20260505005002 | 69 | 155 | 3.0 | 8.0 | 0.00 | 0.01 | 0.01 | 55 | 1004.4 |
| 20260505004923 | 69 | 157 | 3.0 | 8.0 | 0.00 | 0.01 | 0.01 | 55 | 1004.4 |
| 20260505004823 | 69 | 159 | 3.0 | 8.0 | 0.00 | 0.01 | 0.01 | 55 | 1004.4 |
| 20260505004402 | 69 | 158 | 3.0 | 10.0 | 0.00 | 0.01 | 0.01 | 55 | 1004.4 |
| 20260505004102 | 69 | 165 | 3.0 | 10.0 | 0.00 | 0.01 | 0.01 | 54 | 1004.3 |
| 20260505004002 | 70 | 164 | 3.0 | 10.0 | 0.00 | 0.01 | 0.01 | 54 | 1004.4 |
| 20260505003902 | 70 | 162 | 3.0 | 10.0 | 0.00 | 0.01 | 0.01 | 54 | 1004.2 |
| 20260505003623 | 70 | 168 | 3.0 | 10.0 | 0.00 | 0.01 | 0.01 | 54 | 1004.3 |
| 20260505003202 | 70 | 166 | 3.0 | 10.0 | 0.00 | 0.01 | 0.01 | 54 | 1004.4 |
| 20260505002902 | 70 | 172 | 4.0 | 10.0 | 0.00 | 0.01 | 0.01 | 54 | 1004.3 |
| 20260505002802 | 70 | 179 | 4.0 | 10.0 | 0.00 | 0.01 | 0.01 | 54 | 1004.3 |
| 20260505002602 | 70 | 175 | 4.0 | 10.0 | 0.00 | 0.01 | 0.01 | 54 | 1004.3 |
| 20260505002502 | 70 | 180 | 4.0 | 10.0 | 0.00 | 0.01 | 0.01 | 54 | 1004.3 |
| 20260505002423 | 70 | 180 | 4.0 | 10.0 | 0.00 | 0.01 | 0.01 | 54 | 1004.2 |
| 20260505002102 | 70 | 181 | 4.0 | 13.0 | 0.00 | 0.01 | 0.01 | 54 | 1004.3 |
| 20260505001602 | 70 | 182 | 4.0 | 13.0 | 0.00 | 0.01 | 0.01 | 53 | 1004.1 |
| 20260505001402 | 70 | 182 | 4.0 | 13.0 | 0.00 | 0.01 | 0.01 | 53 | 1004.2 |
| 20260505001302 | 70 | 184 | 4.0 | 13.0 | 0.00 | 0.01 | 0.01 | 54 | 1004.2 |
| 20260505000902 | 70 | 179 | 4.0 | 13.0 | 0.00 | 0.01 | 0.01 | 53 | 1004.0 |
| 20260505000402 | 70 | 183 | 4.0 | 16.0 | 0.00 | 0.01 | 0.01 | 53 | 1003.8 |
| 20260505000204 | 70 | 185 | 4.0 | 16.0 | 0.00 | 0.01 | 0.01 | 53 | 1003.9 |
| 20260504235902 | 71 | 192 | 4.0 | 16.0 | 0.00 | 0.01 | 0.01 | 53 | 1003.7 |
| 20260504235602 | 71 | 186 | 4.0 | 16.0 | 0.00 | 0.01 | 0.01 | 52 | 1003.8 |
| 20260504235402 | 71 | 189 | 4.0 | 11.0 | 0.00 | 0.01 | 0.01 | 53 | 1003.8 |
| 20260504235304 | 71 | 182 | 4.0 | 11.0 | 0.00 | 0.01 | 0.01 | 53 | 1003.8 |
| 20260504235223 | 71 | 188 | 4.0 | 11.0 | 0.00 | 0.01 | 0.01 | 52 | 1003.7 |
| 20260504235102 | 71 | 192 | 4.0 | 13.0 | 0.00 | 0.01 | 0.01 | 52 | 1003.8 |
| 20260504234902 | 71 | 190 | 4.0 | 13.0 | 0.00 | 0.01 | 0.01 | 52 | 1003.9 |
| 20260504234802 | 72 | 195 | 4.0 | 13.0 | 0.00 | 0.01 | 0.01 | 52 | 1003.8 |
| 20260504234402 | 72 | 202 | 5.0 | 13.0 | 0.00 | 0.01 | 0.01 | 51 | 1003.8 |
| 20260504234002 | 72 | 203 | 6.0 | 14.0 | 0.00 | 0.01 | 0.01 | 51 | 1003.5 |
| 20260504233902 | 72 | 204 | 6.0 | 14.0 | 0.00 | 0.01 | 0.01 | 51 | 1003.6 |
| 20260504233602 | 72 | 187 | 5.0 | 14.0 | 0.00 | 0.01 | 0.01 | 51 | 1003.6 |
| 20260504233402 | 72 | 188 | 5.0 | 14.0 | 0.00 | 0.01 | 0.01 | 51 | 1003.4 |
| 20260504233102 | 72 | 194 | 5.0 | 14.0 | 0.00 | 0.01 | 0.01 | 52 | 1003.5 |
| 20260504232902 | 72 | 191 | 5.0 | 14.0 | 0.00 | 0.01 | 0.01 | 51 | 1003.5 |
| 20260504232702 | 72 | 200 | 5.0 | 14.0 | 0.00 | 0.01 | 0.01 | 51 | 1003.6 |
| 20260504232602 | 72 | 202 | 5.0 | 14.0 | 0.00 | 0.01 | 0.01 | 51 | 1003.5 |
| 20260504232523 | 72 | 204 | 5.0 | 14.0 | 0.00 | 0.01 | 0.01 | 51 | 1003.6 |
| 20260504232402 | 72 | 198 | 5.0 | 14.0 | 0.00 | 0.01 | 0.01 | 52 | 1003.6 |
| 20260504232303 | 72 | 197 | 5.0 | 14.0 | 0.00 | 0.01 | 0.01 | 52 | 1003.4 |
| 20260504232202 | 72 | 195 | 4.0 | 14.0 | 0.00 | 0.01 | 0.01 | 52 | 1003.5 |
| 20260504231323 | 72 | 180 | 5.0 | 16.0 | 0.00 | 0.01 | 0.01 | 53 | 1003.7 |
| 20260504231202 | 72 | 179 | 5.0 | 16.0 | 0.00 | 0.01 | 0.01 | 53 | 1003.7 |
| 20260504231102 | 72 | 190 | 5.0 | 13.0 | 0.00 | 0.01 | 0.01 | 53 | 1003.6 |
| 20260504230602 | 71 | 180 | 5.0 | 14.0 | 0.00 | 0.01 | 0.01 | 54 | 1003.3 |
| 20260504230502 | 71 | 185 | 5.0 | 14.0 | 0.00 | 0.01 | 0.01 | 54 | 1003.5 |
| 20260504230402 | 71 | 181 | 5.0 | 14.0 | 0.00 | 0.01 | 0.01 | 54 | 1003.6 |
| 20260504230302 | 71 | 186 | 6.0 | 14.0 | 0.00 | 0.01 | 0.01 | 54 | 1003.5 |
| 20260504230002 | 71 | 193 | 7.0 | 17.0 | 0.01 | 0.01 | 0.01 | 54 | 1003.6 |
| 20260504225923 | 71 | 195 | 7.0 | 17.0 | 0.01 | 0.01 | 0.01 | 54 | 1003.8 |
| 20260504225802 | 71 | 197 | 6.0 | 17.0 | 0.01 | 0.01 | 0.01 | 54 | 1003.8 |
| 20260504225602 | 71 | 198 | 6.0 | 17.0 | 0.01 | 0.01 | 0.01 | 54 | 1003.7 |
| 20260504225502 | 71 | 196 | 6.0 | 17.0 | 0.01 | 0.01 | 0.01 | 54 | 1003.9 |
| 20260504225402 | 71 | 198 | 6.0 | 17.0 | 0.01 | 0.01 | 0.01 | 54 | 1004.0 |
| 20260504225102 | 71 | 197 | 6.0 | 17.0 | 0.01 | 0.01 | 0.01 | 54 | 1003.9 |
| 20260504225002 | 72 | 189 | 5.0 | 15.0 | 0.01 | 0.01 | 0.01 | 54 | 1003.7 |
| 20260504224902 | 72 | 185 | 5.0 | 13.0 | 0.01 | 0.01 | 0.01 | 54 | 1003.8 |
| 20260504224723 | 72 | 186 | 5.0 | 13.0 | 0.01 | 0.01 | 0.01 | 54 | 1003.7 |
| 20260504224602 | 72 | 189 | 5.0 | 13.0 | 0.01 | 0.01 | 0.01 | 55 | 1003.9 |
| 20260504224402 | 71 | 189 | 5.0 | 13.0 | 0.01 | 0.01 | 0.01 | 55 | 1003.9 |
| 20260504224302 | 71 | 192 | 5.0 | 10.0 | 0.01 | 0.01 | 0.01 | 56 | 1003.9 |
| 20260504224102 | 71 | 186 | 5.0 | 10.0 | 0.01 | 0.01 | 0.01 | 55 | 1003.8 |
| 20260504223902 | 72 | 194 | 5.0 | 11.0 | 0.01 | 0.01 | 0.01 | 55 | 1004.0 |
| 20260504223702 | 72 | 195 | 5.0 | 11.0 | 0.01 | 0.01 | 0.01 | 55 | 1004.1 |
| 20260504223602 | 72 | 188 | 5.0 | 11.0 | 0.01 | 0.01 | 0.01 | 55 | 1004.0 |
| 20260504223302 | 71 | 183 | 5.0 | 14.0 | 0.01 | 0.01 | 0.01 | 55 | 1004.0 |
| 20260504223102 | 72 | 179 | 5.0 | 16.0 | 0.01 | 0.01 | 0.01 | 55 | 1004.0 |
| 20260504222923 | 72 | 175 | 4.0 | 16.0 | 0.01 | 0.01 | 0.01 | 56 | 1004.1 |
| 20260504222702 | 71 | 172 | 4.0 | 16.0 | 0.01 | 0.01 | 0.01 | 56 | 1004.1 |
| 20260504222602 | 71 | 175 | 4.0 | 16.0 | 0.01 | 0.01 | 0.01 | 56 | 1004.0 |
| 20260504222502 | 71 | 169 | 3.0 | 16.0 | 0.01 | 0.01 | 0.01 | 54 | 1003.9 |
| 20260504222102 | 71 | 181 | 4.0 | 16.0 | 0.01 | 0.01 | 0.01 | 57 | 1004.1 |
| 20260504221802 | 70 | 192 | 4.0 | 16.0 | 0.01 | 0.01 | 0.01 | 59 | 1004.2 |
| 20260504221602 | 69 | 186 | 5.0 | 16.0 | 0.01 | 0.01 | 0.01 | 61 | 1004.4 |
| 20260504221102 | 69 | 182 | 4.0 | 14.0 | 0.01 | 0.01 | 0.01 | 61 | 1004.3 |
| 20260504221002 | 68 | 179 | 4.0 | 14.0 | 0.01 | 0.01 | 0.01 | 61 | 1004.3 |
| 20260504220902 | 68 | 164 | 3.0 | 9.0 | 0.01 | 0.01 | 0.01 | 65 | 1004.3 |
| 20260504220802 | 68 | 169 | 4.0 | 10.0 | 0.01 | 0.01 | 0.01 | 67 | 1004.4 |
| 20260504220602 | 68 | 185 | 4.0 | 16.0 | 0.01 | 0.01 | 0.01 | 67 | 1004.2 |
| 20260504220402 | 68 | 188 | 5.0 | 16.0 | 0.01 | 0.01 | 0.01 | 65 | 1004.2 |
| 20260504215902 | 71 | 187 | 6.0 | 16.0 | 0.00 | 0.00 | 0.00 | 56 | 1004.6 |
| 20260504215802 | 71 | 186 | 5.0 | 16.0 | 0.00 | 0.00 | 0.00 | 53 | 1004.6 |
| 20260504215602 | 71 | 193 | 6.0 | 16.0 | 0.00 | 0.00 | 0.00 | 53 | 1004.5 |
| 20260504215402 | 71 | 189 | 5.0 | 16.0 | 0.00 | 0.00 | 0.00 | 53 | 1004.2 |
| 20260504214902 | 72 | 186 | 5.0 | 16.0 | 0.00 | 0.00 | 0.00 | 52 | 1004.4 |
| 20260504214802 | 72 | 183 | 5.0 | 16.0 | 0.00 | 0.00 | 0.00 | 52 | 1004.3 |
| 20260504214702 | 72 | 182 | 5.0 | 16.0 | 0.00 | 0.00 | 0.00 | 52 | 1004.3 |
| 20260504214602 | 72 | 173 | 5.0 | 15.0 | 0.00 | 0.00 | 0.00 | 52 | 1004.4 |
| 20260504214402 | 72 | 177 | 5.0 | 15.0 | 0.00 | 0.00 | 0.00 | 52 | 1004.2 |
| 20260504214102 | 74 | 185 | 5.0 | 13.0 | 0.00 | 0.00 | 0.00 | 51 | 1004.2 |
| 20260504214002 | 74 | 180 | 5.0 | 13.0 | 0.00 | 0.00 | 0.00 | 50 | 1004.2 |
| 20260504213602 | 74 | 187 | 6.0 | 16.0 | 0.00 | 0.00 | 0.00 | 49 | 1004.2 |
| 20260504213302 | 74 | 178 | 6.0 | 16.0 | 0.00 | 0.00 | 0.00 | 49 | 1004.2 |
| 20260504213202 | 74 | 174 | 5.0 | 16.0 | 0.00 | 0.00 | 0.00 | 49 | 1004.2 |
| 20260504213102 | 74 | 168 | 5.0 | 16.0 | 0.00 | 0.00 | 0.00 | 49 | 1004.3 |
| 20260504212902 | 74 | 162 | 5.0 | 16.0 | 0.00 | 0.00 | 0.00 | 49 | 1004.2 |
| 20260504212502 | 73 | 163 | 4.0 | 11.0 | 0.00 | 0.00 | 0.00 | 49 | 1004.2 |
| 20260504212303 | 73 | 164 | 4.0 | 13.0 | 0.00 | 0.00 | 0.00 | 50 | 1004.1 |
| 20260504212102 | 73 | 168 | 4.0 | 13.0 | 0.00 | 0.00 | 0.00 | 50 | 1004.3 |
| 20260504211923 | 73 | 185 | 4.0 | 13.0 | 0.00 | 0.00 | 0.00 | 50 | 1004.4 |
| 20260504211802 | 74 | 191 | 5.0 | 13.0 | 0.00 | 0.00 | 0.00 | 49 | 1004.3 |
| 20260504211302 | 73 | 201 | 6.0 | 15.0 | 0.00 | 0.00 | 0.00 | 49 | 1004.5 |
| 20260504211102 | 72 | 200 | 6.0 | 15.0 | 0.00 | 0.00 | 0.00 | 50 | 1004.5 |
| 20260504210802 | 72 | 189 | 6.0 | 15.0 | 0.00 | 0.00 | 0.00 | 51 | 1004.5 |
| 20260504210602 | 72 | 181 | 5.0 | 15.0 | 0.00 | 0.00 | 0.00 | 50 | 1004.5 |
| 20260504210323 | 73 | 169 | 4.0 | 13.0 | 0.00 | 0.00 | 0.00 | 49 | 1004.6 |
| 20260504210002 | 73 | 169 | 4.0 | 13.0 | 0.00 | 0.00 | 0.00 | 49 | 1004.7 |
| 20260504205602 | 74 | 191 | 5.0 | 17.0 | 0.00 | 0.00 | 0.00 | 48 | 1004.6 |
| 20260504205423 | 74 | 208 | 6.0 | 17.0 | 0.00 | 0.00 | 0.00 | 47 | 1004.7 |
| 20260504205223 | 73 | 209 | 6.0 | 17.0 | 0.00 | 0.00 | 0.00 | 47 | 1004.6 |
| 20260504204923 | 72 | 214 | 7.0 | 18.0 | 0.00 | 0.00 | 0.00 | 48 | 1004.7 |
| 20260504204802 | 72 | 210 | 7.0 | 18.0 | 0.00 | 0.00 | 0.00 | 48 | 1004.7 |
| 20260504204602 | 73 | 194 | 6.0 | 18.0 | 0.00 | 0.00 | 0.00 | 48 | 1004.6 |
| 20260504204402 | 73 | 187 | 5.0 | 18.0 | 0.00 | 0.00 | 0.00 | 47 | 1004.6 |
| 20260504204323 | 73 | 188 | 5.0 | 18.0 | 0.00 | 0.00 | 0.00 | 47 | 1004.9 |
| 20260504204102 | 74 | 174 | 4.0 | 15.0 | 0.00 | 0.00 | 0.00 | 47 | 1004.9 |
| 20260504204002 | 74 | 168 | 4.0 | 15.0 | 0.00 | 0.00 | 0.00 | 46 | 1004.6 |
| 20260504203702 | 74 | 197 | 5.0 | 15.0 | 0.00 | 0.00 | 0.00 | 46 | 1004.6 |
| 20260504203602 | 74 | 207 | 5.0 | 15.0 | 0.00 | 0.00 | 0.00 | 46 | 1004.7 |
| 20260504203523 | 74 | 203 | 5.0 | 14.0 | 0.00 | 0.00 | 0.00 | 45 | 1004.7 |
| 20260504203423 | 74 | 209 | 5.0 | 14.0 | 0.00 | 0.00 | 0.00 | 45 | 1004.7 |
| 20260504203202 | 74 | 210 | 6.0 | 15.0 | 0.00 | 0.00 | 0.00 | 46 | 1004.6 |
| 20260504202902 | 73 | 205 | 6.0 | 17.0 | 0.00 | 0.00 | 0.00 | 46 | 1004.9 |
| 20260504202202 | 73 | 193 | 6.0 | 17.0 | 0.00 | 0.00 | 0.00 | 45 | 1004.7 |
| 20260504202102 | 74 | 191 | 6.0 | 17.0 | 0.00 | 0.00 | 0.00 | 45 | 1004.9 |
| 20260504201802 | 73 | 196 | 6.0 | 14.0 | 0.00 | 0.00 | 0.00 | 47 | 1004.9 |
| 20260504201602 | 73 | 202 | 6.0 | 14.0 | 0.00 | 0.00 | 0.00 | 46 | 1004.9 |
| 20260504201502 | 73 | 202 | 6.0 | 14.0 | 0.00 | 0.00 | 0.00 | 46 | 1004.9 |
| 20260504201102 | 74 | 197 | 5.0 | 14.0 | 0.00 | 0.00 | 0.00 | 47 | 1005.0 |
| 20260504201002 | 74 | 196 | 5.0 | 14.0 | 0.00 | 0.00 | 0.00 | 46 | 1005.0 |
| 20260504200902 | 74 | 182 | 5.0 | 14.0 | 0.00 | 0.00 | 0.00 | 46 | 1005.0 |
| 20260504200602 | 74 | 190 | 5.0 | 15.0 | 0.00 | 0.00 | 0.00 | 47 | 1005.0 |
| 20260504200423 | 73 | 191 | 5.0 | 15.0 | 0.00 | 0.00 | 0.00 | 47 | 1004.9 |
| 20260504195702 | 73 | 192 | 6.0 | 15.0 | 0.00 | 0.00 | 0.00 | 46 | 1005.0 |
| 20260504195623 | 73 | 183 | 6.0 | 15.0 | 0.00 | 0.00 | 0.00 | 45 | 1005.1 |
| 20260504195502 | 73 | 179 | 6.0 | 16.0 | 0.00 | 0.00 | 0.00 | 46 | 1005.2 |
| 20260504195402 | 73 | 179 | 6.0 | 16.0 | 0.00 | 0.00 | 0.00 | 46 | 1005.1 |
| 20260504195323 | 73 | 176 | 6.0 | 16.0 | 0.00 | 0.00 | 0.00 | 45 | 1005.2 |
| 20260504195202 | 73 | 174 | 6.0 | 16.0 | 0.00 | 0.00 | 0.00 | 46 | 1005.1 |
| 20260504195102 | 73 | 174 | 6.0 | 16.0 | 0.00 | 0.00 | 0.00 | 45 | 1005.2 |
| 20260504194902 | 73 | 169 | 6.0 | 16.0 | 0.00 | 0.00 | 0.00 | 46 | 1005.2 |
| 20260504194602 | 73 | 179 | 5.0 | 16.0 | 0.00 | 0.00 | 0.00 | 47 | 1005.0 |
| 20260504194302 | 73 | 177 | 5.0 | 13.0 | 0.00 | 0.00 | 0.00 | 47 | 1005.0 |
| 20260504194002 | 73 | 179 | 5.0 | 13.0 | 0.00 | 0.00 | 0.00 | 46 | 1005.1 |
| 20260504193923 | 73 | 177 | 5.0 | 13.0 | 0.00 | 0.00 | 0.00 | 46 | 1005.1 |
| 20260504193602 | 73 | 189 | 5.0 | 14.0 | 0.00 | 0.00 | 0.00 | 47 | 1005.4 |
| 20260504193323 | 73 | 196 | 5.0 | 14.0 | 0.00 | 0.00 | 0.00 | 47 | 1005.5 |
| 20260504193212 | 73 | 194 | 6.0 | 14.0 | 0.00 | 0.00 | 0.00 | 44 | 1005.6 |
| 20260504193103 | 72 | 194 | 6.0 | 14.0 | 0.00 | 0.00 | 0.00 | 47 | 1005.5 |
| 20260504192923 | 72 | 202 | 6.0 | 14.0 | 0.00 | 0.00 | 0.00 | 46 | 1005.6 |
| 20260504192602 | 72 | 198 | 6.0 | 13.0 | 0.00 | 0.00 | 0.00 | 49 | 1005.5 |
| 20260504192502 | 72 | 200 | 6.0 | 13.0 | 0.00 | 0.00 | 0.00 | 48 | 1005.4 |
| 20260504192402 | 72 | 200 | 6.0 | 13.0 | 0.00 | 0.00 | 0.00 | 47 | 1005.6 |
| 20260504192304 | 72 | 200 | 6.0 | 13.0 | 0.00 | 0.00 | 0.00 | 47 | 1005.5 |
| 20260504192102 | 72 | 206 | 6.0 | 16.0 | 0.00 | 0.00 | 0.00 | 47 | 1005.6 |
| 20260504191623 | 72 | 206 | 7.0 | 16.0 | 0.00 | 0.00 | 0.00 | 48 | 1005.7 |
| 20260504191302 | 71 | 212 | 7.0 | 16.0 | 0.00 | 0.00 | 0.00 | 48 | 1005.6 |
| 20260504191202 | 72 | 203 | 7.0 | 15.0 | 0.00 | 0.00 | 0.00 | 48 | 1005.8 |
| 20260504190802 | 72 | 179 | 6.0 | 16.0 | 0.00 | 0.00 | 0.00 | 48 | 1005.7 |
| 20260504190602 | 71 | 161 | 6.0 | 16.0 | 0.00 | 0.00 | 0.00 | 47 | 1006.0 |
| 20260504190302 | 71 | 170 | 6.0 | 16.0 | 0.00 | 0.00 | 0.00 | 50 | 1005.8 |
| 20260504190202 | 71 | 181 | 6.0 | 16.0 | 0.00 | 0.00 | 0.00 | 50 | 1005.8 |
| 20260504185823 | 71 | 187 | 6.0 | 16.0 | 0.00 | 0.00 | 0.00 | 49 | 1006.0 |
| 20260504185702 | 71 | 194 | 7.0 | 16.0 | 0.00 | 0.00 | 0.00 | 49 | 1005.9 |
| 20260504185304 | 72 | 189 | 6.0 | 16.0 | 0.00 | 0.00 | 0.00 | 48 | 1006.2 |
| 20260504185102 | 71 | 191 | 7.0 | 15.0 | 0.00 | 0.00 | 0.00 | 48 | 1006.0 |
| 20260504184902 | 71 | 201 | 7.0 | 16.0 | 0.00 | 0.00 | 0.00 | 49 | 1006.2 |
| 20260504184602 | 71 | 199 | 7.0 | 16.0 | 0.00 | 0.00 | 0.00 | 48 | 1006.1 |
| 20260504184202 | 71 | 190 | 6.0 | 16.0 | 0.00 | 0.00 | 0.00 | 48 | 1006.3 |
| 20260504183802 | 72 | 163 | 5.0 | 19.0 | 0.00 | 0.00 | 0.00 | 46 | 1006.2 |
| 20260504183723 | 72 | 157 | 5.0 | 19.0 | 0.00 | 0.00 | 0.00 | 46 | 1006.1 |
| 20260504183402 | 71 | 155 | 5.0 | 19.0 | 0.00 | 0.00 | 0.00 | 47 | 1006.2 |
| 20260504183102 | 72 | 166 | 5.0 | 19.0 | 0.00 | 0.00 | 0.00 | 47 | 1006.2 |
| 20260504182802 | 71 | 169 | 5.0 | 14.0 | 0.00 | 0.00 | 0.00 | 48 | 1006.2 |
| 20260504182623 | 71 | 169 | 5.0 | 14.0 | 0.00 | 0.00 | 0.00 | 47 | 1006.4 |
| 20260504182123 | 71 | 169 | 5.0 | 14.0 | 0.00 | 0.00 | 0.00 | 46 | 1006.2 |
| 20260504182023 | 72 | 164 | 4.0 | 14.0 | 0.00 | 0.00 | 0.00 | 45 | 1006.3 |
| 20260504181902 | 72 | 173 | 4.0 | 14.0 | 0.00 | 0.00 | 0.00 | 45 | 1006.2 |
| 20260504181802 | 72 | 180 | 4.0 | 14.0 | 0.00 | 0.00 | 0.00 | 45 | 1006.3 |
| 20260504181702 | 71 | 182 | 4.0 | 14.0 | 0.00 | 0.00 | 0.00 | 46 | 1006.2 |
| 20260504181602 | 71 | 187 | 4.0 | 14.0 | 0.00 | 0.00 | 0.00 | 46 | 1006.4 |
| 20260504181402 | 72 | 178 | 4.0 | 11.0 | 0.00 | 0.00 | 0.00 | 46 | 1006.3 |
| 20260504181002 | 71 | 170 | 5.0 | 13.0 | 0.00 | 0.00 | 0.00 | 45 | 1006.2 |
| 20260504180802 | 72 | 166 | 5.0 | 13.0 | 0.00 | 0.00 | 0.00 | 45 | 1006.5 |
| 20260504180602 | 71 | 163 | 5.0 | 15.0 | 0.00 | 0.00 | 0.00 | 46 | 1006.5 |
| 20260504180402 | 71 | 168 | 5.0 | 15.0 | 0.00 | 0.00 | 0.00 | 46 | 1006.3 |
| 20260504180002 | 71 | 168 | 5.0 | 15.0 | 0.00 | 0.00 | 0.00 | 46 | 1006.4 |
| 20260504175802 | 70 | 174 | 6.0 | 15.0 | 0.00 | 0.00 | 0.00 | 47 | 1006.6 |
| 20260504175702 | 70 | 169 | 6.0 | 15.0 | 0.00 | 0.00 | 0.00 | 48 | 1006.4 |
| 20260504175602 | 70 | 174 | 5.0 | 13.0 | 0.00 | 0.00 | 0.00 | 46 | 1006.6 |
| 20260504175502 | 71 | 174 | 6.0 | 13.0 | 0.00 | 0.00 | 0.00 | 45 | 1006.5 |
| 20260504175102 | 71 | 172 | 6.0 | 14.0 | 0.00 | 0.00 | 0.00 | 46 | 1006.5 |
| 20260504175023 | 71 | 175 | 6.0 | 14.0 | 0.00 | 0.00 | 0.00 | 46 | 1006.4 |
| 20260504174902 | 70 | 168 | 5.0 | 14.0 | 0.00 | 0.00 | 0.00 | 47 | 1006.6 |
| 20260504174702 | 71 | 177 | 5.0 | 14.0 | 0.00 | 0.00 | 0.00 | 46 | 1006.6 |
| 20260504174602 | 71 | 174 | 5.0 | 14.0 | 0.00 | 0.00 | 0.00 | 46 | 1006.7 |
| 20260504174323 | 71 | 189 | 4.0 | 13.0 | 0.00 | 0.00 | 0.00 | 47 | 1006.6 |
| 20260504174102 | 71 | 191 | 5.0 | 13.0 | 0.00 | 0.00 | 0.00 | 47 | 1006.6 |
| 20260504174002 | 71 | 187 | 5.0 | 13.0 | 0.00 | 0.00 | 0.00 | 47 | 1006.4 |
| 20260504173902 | 71 | 187 | 5.0 | 13.0 | 0.00 | 0.00 | 0.00 | 45 | 1006.5 |
| 20260504173802 | 70 | 187 | 5.0 | 13.0 | 0.00 | 0.00 | 0.00 | 47 | 1006.7 |
| 20260504173623 | 70 | 181 | 5.0 | 13.0 | 0.00 | 0.00 | 0.00 | 47 | 1006.5 |
| 20260504173502 | 70 | 178 | 6.0 | 13.0 | 0.00 | 0.00 | 0.00 | 45 | 1006.6 |
| 20260504172802 | 70 | 165 | 6.0 | 15.0 | 0.00 | 0.00 | 0.00 | 48 | 1006.9 |
| 20260504172502 | 70 | 178 | 5.0 | 15.0 | 0.00 | 0.00 | 0.00 | 47 | 1006.7 |
| 20260504172102 | 70 | 159 | 4.0 | 14.0 | 0.00 | 0.00 | 0.00 | 46 | 1006.7 |
| 20260504172002 | 70 | 156 | 4.0 | 14.0 | 0.00 | 0.00 | 0.00 | 48 | 1006.7 |
| 20260504171702 | 70 | 147 | 5.0 | 14.0 | 0.00 | 0.00 | 0.00 | 46 | 1006.9 |
| 20260504171623 | 70 | 145 | 5.0 | 14.0 | 0.00 | 0.00 | 0.00 | 48 | 1006.6 |
| 20260504171423 | 69 | 144 | 5.0 | 14.0 | 0.00 | 0.00 | 0.00 | 48 | 1006.8 |
| 20260504171302 | 69 | 141 | 5.0 | 14.0 | 0.00 | 0.00 | 0.00 | 49 | 1006.8 |
| 20260504171123 | 70 | 138 | 5.0 | 14.0 | 0.00 | 0.00 | 0.00 | 47 | 1006.7 |
| 20260504170902 | 70 | 151 | 4.0 | 14.0 | 0.00 | 0.00 | 0.00 | 47 | 1006.9 |
| 20260504170723 | 70 | 157 | 4.0 | 11.0 | 0.00 | 0.00 | 0.00 | 48 | 1006.9 |
| 20260504170602 | 70 | 162 | 4.0 | 13.0 | 0.00 | 0.00 | 0.00 | 47 | 1006.8 |
| 20260504170402 | 70 | 166 | 4.0 | 13.0 | 0.00 | 0.00 | 0.00 | 48 | 1006.7 |
| 20260504170202 | 69 | 172 | 5.0 | 13.0 | 0.00 | 0.00 | 0.00 | 48 | 1006.8 |
| 20260504160302 | 66 | 141 | 6.0 | 13.0 | 0.00 | 0.00 | 0.00 | 51 | 1007.6 |
| 20260504151102 | 64 | 164 | 5.0 | 13.0 | 0.00 | 0.00 | 0.00 | 51 | 1007.8 |
| 20260504150602 | 64 | 169 | 4.0 | 9.0 | 0.00 | 0.00 | 0.00 | 52 | 1008.0 |
| 20260504150502 | 65 | 165 | 4.0 | 9.0 | 0.00 | 0.00 | 0.00 | 52 | 1007.7 |
| 20260504150402 | 65 | 162 | 4.0 | 9.0 | 0.00 | 0.00 | 0.00 | 51 | 1007.9 |
| 20260504141102 | 61 | 188 | 4.0 | 11.0 | 0.00 | 0.00 | 0.00 | 55 | 1008.3 |
| 20260504140823 | 61 | 184 | 4.0 | 11.0 | 0.00 | 0.00 | 0.00 | 55 | 1008.3 |
| 20260504140602 | 61 | 173 | 4.0 | 10.0 | 0.00 | 0.00 | 0.00 | 55 | 1008.3 |
| 20260504140202 | 60 | 166 | 4.0 | 8.0 | 0.00 | 0.00 | 0.00 | 55 | 1008.2 |
| 20260504130802 | 57 | 176 | 4.0 | 10.0 | 0.00 | 0.00 | 0.00 | 58 | 1009.0 |
| 20260504130602 | 57 | 178 | 4.0 | 10.0 | 0.00 | 0.00 | 0.00 | 58 | 1008.9 |
| 20260504130402 | 56 | 177 | 4.0 | 10.0 | 0.00 | 0.00 | 0.00 | 59 | 1009.0 |
| 20260504130302 | 56 | 177 | 4.0 | 10.0 | 0.00 | 0.00 | 0.00 | 59 | 1008.8 |
| 20260504130202 | 56 | 178 | 4.0 | 10.0 | 0.00 | 0.00 | 0.00 | 59 | 1008.9 |
| 20260504130123 | 56 | 185 | 4.0 | 10.0 | 0.00 | 0.00 | 0.00 | 59 | 1008.7 |
| 20260504120202 | 52 | 161 | 4.0 | 13.0 | 0.00 | 0.00 | 0.00 | 63 | 1008.9 |
| 20260504110602 | 50 | 158 | 3.0 | 8.0 | 0.00 | 0.00 | 0.00 | 66 | 1008.8 |
| 20260504110502 | 50 | 161 | 4.0 | 11.0 | 0.00 | 0.00 | 0.00 | 66 | 1008.7 |
| 20260504110402 | 50 | 159 | 4.0 | 11.0 | 0.00 | 0.00 | 0.00 | 66 | 1008.6 |
| 20260504110302 | 50 | 160 | 4.0 | 11.0 | 0.00 | 0.00 | 0.00 | 65 | 1008.6 |
| 20260504110202 | 50 | 157 | 4.0 | 11.0 | 0.00 | 0.00 | 0.00 | 65 | 1008.5 |
| 20260504100602 | 50 | 140 | 2.0 | 9.0 | 0.00 | 0.00 | 0.00 | 65 | 1008.5 |
| 20260504100502 | 49 | 139 | 2.0 | 9.0 | 0.00 | 0.00 | 0.00 | 65 | 1008.6 |
| 20260504100402 | 50 | 140 | 2.0 | 6.0 | 0.00 | 0.00 | 0.00 | 65 | 1008.6 |
| 20260504081702 | 49 | 128 | 2.0 | 6.0 | 0.00 | 0.00 | 0.00 | 66 | 1009.4 |
| 20260504081602 | 49 | 130 | 2.0 | 6.0 | 0.00 | 0.00 | 0.00 | 66 | 1009.3 |
| 20260504081302 | 49 | 127 | 2.0 | 6.0 | 0.00 | 0.00 | 0.00 | 66 | 1009.4 |
| 20260504081102 | 49 | 130 | 2.0 | 6.0 | 0.00 | 0.00 | 0.00 | 65 | 1009.4 |
| 20260504081002 | 49 | 128 | 2.0 | 6.0 | 0.00 | 0.00 | 0.00 | 65 | 1009.5 |
| 20260504080902 | 49 | 126 | 2.0 | 6.0 | 0.00 | 0.00 | 0.00 | 65 | 1009.5 |
| 20260504080623 | 49 | 127 | 2.0 | 6.0 | 0.00 | 0.00 | 0.00 | 65 | 1009.4 |
| 20260504080502 | 49 | 130 | 2.0 | 6.0 | 0.00 | 0.00 | 0.00 | 66 | 1009.3 |
| 20260504080123 | 49 | 135 | 3.0 | 6.0 | 0.00 | 0.00 | 0.00 | 65 | 1009.5 |
| 20260504050602 | 50 | 139 | 2.0 | 6.0 | 0.00 | 0.00 | 0.00 | 65 | 1011.6 |
| 20260504050502 | 50 | 136 | 2.0 | 6.0 | 0.00 | 0.00 | 0.00 | 65 | 1011.7 |
| 20260504050302 | 50 | 133 | 2.0 | 4.0 | 0.00 | 0.00 | 0.00 | 65 | 1011.6 |
| 20260504050123 | 50 | 137 | 2.0 | 6.0 | 0.00 | 0.00 | 0.00 | 65 | 1011.7 |
| 20260504050002 | 50 | 136 | 2.0 | 6.0 | 0.00 | 0.00 | 0.00 | 65 | 1011.7 |
| 20260504045702 | 50 | 135 | 2.0 | 6.0 | 0.00 | 0.00 | 0.00 | 65 | 1011.7 |
| 20260504045304 | 50 | 138 | 2.0 | 6.0 | 0.00 | 0.00 | 0.00 | 64 | 1011.5 |
| 20260504045202 | 50 | 137 | 2.0 | 4.0 | 0.00 | 0.00 | 0.00 | 64 | 1011.8 |
| 20260504045102 | 50 | 134 | 2.0 | 4.0 | 0.00 | 0.00 | 0.00 | 65 | 1011.7 |
| 20260504044602 | 50 | 142 | 2.0 | 4.0 | 0.00 | 0.00 | 0.00 | 64 | 1011.8 |
| 20260504044423 | 50 | 141 | 2.0 | 4.0 | 0.00 | 0.00 | 0.00 | 64 | 1011.8 |
| 20260504044102 | 50 | 135 | 1.0 | 4.0 | 0.00 | 0.00 | 0.00 | 64 | 1012.0 |
| 20260504043902 | 50 | 133 | 1.0 | 4.0 | 0.00 | 0.00 | 0.00 | 64 | 1012.0 |
| 20260504043802 | 50 | 130 | 2.0 | 4.0 | 0.00 | 0.00 | 0.00 | 64 | 1011.7 |